Weather History for KOSC - December, 2013

Change the Weather History Date:

Friday, December 13, 2013

  Actual Average Record
Temperature  
Mean Temperature 16 °F -  
Max Temperature 21 °F 34 °F 46 °F (1998)
Min Temperature 11 °F 21 °F 1 °F (2000)
Degree Days  
Heating Degree Days 49    
Moisture  
Dew Point 8 °F    
Average Humidity 68    
Maximum Humidity 82    
Minimum Humidity 57    
Precipitation  
Precipitation 0.00 in - - ()
Sea Level Pressure  
Sea Level Pressure 30.20 in    
Wind  
Wind Speed 10 mph (NNW)    
Max Wind Speed 14 mph    
Max Gust Speed -    
Visibility 10 miles    
Events Snow    
Averages and records for this station are not official NWS values.
T = Trace of Precipitation, MM = Missing Value Source: NWS Daily Summary

Daily Weather History Graph

Daily Weather History Graph

Search for Another Location

Airport or City:

Trip Planner

Search our weather history database for the weather conditions in past years. The results will help you decide how hot, cold, wet, or windy it might be!

Date:

Astronomy

Dec. 13, 2013 Rise Set
Actual Time 8:01 AM EST 4:54 PM EST
Civil Twilight 7:28 AM EST 5:27 PM EST
Nautical Twilight 6:51 AM EST 6:04 PM EST
Astronomical Twilight 6:16 AM EST 6:39 PM EST
Moon 2:41 PM EST (12/13) 4:17 AM EST (12/13)
Length of Visible Light 9h 59m
Length of Day
8h 52m
Waxing Gibbous, 88% of the Moon is Illuminated
Dec 13
Waxing Gibbous
Dec 17
Full
Dec 25
Last Quarter
Jan 1
New
Jan 7
First Quarter

Hourly Weather History & Observations

Time (EST) Temp. Windchill Dew Point Humidity Pressure Visibility Wind Dir Wind Speed Gust Speed Precip Events Conditions
12:14 AM 18.0 °F 5.4 °F 12.2 °F 78% 30.02 in 10.0 mi SW 11.5 mph - N/A   Overcast
12:34 AM 18.3 °F 4.6 °F 12.6 °F 78% 30.02 in 10.0 mi SW 13.8 mph - N/A   Overcast
12:54 AM 18.5 °F 6.1 °F 12.7 °F 78% 30.02 in 10.0 mi SW 11.5 mph - N/A   Overcast
1:14 AM 18.5 °F 5.5 °F 13.1 °F 79% 30.01 in 10.0 mi SW 12.7 mph - N/A   Overcast
1:34 AM 18.9 °F 6.5 °F 13.1 °F 78% 30.02 in 10.0 mi SW 11.5 mph - N/A   Overcast
1:54 AM 19.0 °F 7.5 °F 13.5 °F 79% 30.01 in 10.0 mi WSW 10.4 mph - N/A   Overcast
2:14 AM 19.0 °F 8.2 °F 13.5 °F 79% 30.02 in 10.0 mi SW 9.2 mph - N/A   Overcast
2:34 AM 19.4 °F 7.9 °F 13.3 °F 77% 30.02 in 10.0 mi SW 10.4 mph - N/A   Overcast
2:54 AM 19.8 °F 8.3 °F 13.1 °F 75% 30.03 in 10.0 mi SW 10.4 mph - N/A   Overcast
3:13 AM 20.1 °F 11.3 °F 12.9 °F 74% 30.03 in 10.0 mi WSW 6.9 mph - N/A   Overcast
3:34 AM 20.3 °F 10.6 °F 12.6 °F 72% 30.03 in 10.0 mi WSW 8.1 mph - N/A   Overcast
3:54 AM 20.8 °F 11.2 °F 12.2 °F 69% 30.04 in 10.0 mi WSW 8.1 mph - N/A   Overcast
4:14 AM 21.2 °F 10.9 °F 12.0 °F 68% 30.04 in 10.0 mi West 9.2 mph - N/A   Overcast
4:34 AM 21.2 °F 10.9 °F 12.2 °F 68% 30.05 in 10.0 mi West 9.2 mph - N/A   Overcast
4:54 AM 21.2 °F 10.9 °F 12.6 °F 69% 30.06 in 10.0 mi West 9.2 mph - N/A   Overcast
5:14 AM 21.2 °F 13.6 °F 12.9 °F 70% 30.06 in 10.0 mi West 5.8 mph - N/A   Overcast
5:34 AM 21.0 °F 11.4 °F 13.1 °F 71% 30.06 in 10.0 mi West 8.1 mph - N/A   Overcast
5:54 AM 20.8 °F 12.1 °F 13.5 °F 73% 30.08 in 10.0 mi West 6.9 mph - N/A   Overcast
6:14 AM 21.0 °F 13.4 °F 13.1 °F 71% 30.09 in 10.0 mi West 5.8 mph - N/A   Overcast
6:34 AM 20.8 °F 14.4 °F 12.7 °F 71% 30.10 in 10.0 mi NNW 4.6 mph - N/A   Overcast
6:54 AM 19.9 °F 7.9 °F 13.8 °F 77% 30.11 in 7.0 mi NNW 11.5 mph - N/A Snow Light Snow
7:14 AM 19.0 °F 6.8 °F 14.4 °F 82% 30.12 in 3.0 mi North 11.5 mph - N/A Snow Light Snow
7:34 AM 18.5 °F 6.1 °F 12.0 °F 76% 30.13 in 10.0 mi NNW 11.5 mph - N/A   Overcast
7:54 AM 18.3 °F 10.2 °F 10.4 °F 71% 30.14 in 10.0 mi NNW 5.8 mph - N/A   Overcast
8:14 AM 18.1 °F 8.9 °F 9.5 °F 69% 30.15 in 10.0 mi NNW 6.9 mph - N/A   Overcast
8:34 AM 17.6 °F 6.4 °F 8.4 °F 67% 30.16 in 10.0 mi North 9.2 mph - N/A   Overcast
8:54 AM 16.7 °F 3.2 °F 8.6 °F 70% 30.17 in 10.0 mi North 12.7 mph - N/A   Overcast
9:14 AM 15.8 °F 3.4 °F 9.0 °F 74% 30.18 in 10.0 mi North 10.4 mph - N/A   Scattered Clouds
9:34 AM 15.8 °F 4.2 °F 8.6 °F 73% 30.19 in 10.0 mi North 9.2 mph - N/A   Scattered Clouds
9:54 AM 16.2 °F 3.9 °F 8.4 °F 72% 30.20 in 10.0 mi North 10.4 mph - N/A   Overcast
10:14 AM 16.7 °F 6.2 °F 7.7 °F 68% 30.21 in 10.0 mi North 8.1 mph - N/A   Overcast
10:34 AM 16.5 °F 5.1 °F 7.3 °F 67% 30.22 in 10.0 mi North 9.2 mph - N/A   Mostly Cloudy
10:54 AM 16.2 °F 3.2 °F 7.5 °F 69% 30.22 in 10.0 mi North 11.5 mph - N/A   Scattered Clouds
11:14 AM 16.5 °F 4.3 °F 7.3 °F 67% 30.22 in 10.0 mi North 10.4 mph - N/A   Scattered Clouds
11:34 AM 17.2 °F 5.2 °F 6.3 °F 62% 30.23 in 10.0 mi North 10.4 mph - N/A   Scattered Clouds
11:54 AM 17.6 °F 6.4 °F 6.1 °F 61% 30.23 in 10.0 mi North 9.2 mph - N/A   Mostly Cloudy
12:14 PM 18.0 °F 6.9 °F 6.6 °F 61% 30.22 in 10.0 mi NNE 9.2 mph - N/A   Mostly Cloudy
12:34 PM 18.5 °F 7.5 °F 6.8 °F 60% 30.22 in 10.0 mi North 9.2 mph - N/A   Scattered Clouds
12:54 PM 17.6 °F 4.3 °F 5.9 °F 60% 30.21 in 10.0 mi NNE 12.7 mph - N/A   Scattered Clouds
1:14 PM 17.6 °F 6.4 °F 6.1 °F 61% 30.22 in 10.0 mi North 9.2 mph - N/A   Overcast
1:34 PM 17.6 °F 7.3 °F 5.7 °F 60% 30.23 in 10.0 mi North 8.1 mph - N/A   Overcast
1:54 PM 17.4 °F 7.1 °F 5.2 °F 59% 30.23 in 10.0 mi NNE 8.1 mph - N/A   Overcast
2:14 PM 17.2 °F 5.2 °F 5.2 °F 59% 30.23 in 10.0 mi North 10.4 mph - N/A   Overcast
2:34 PM 16.5 °F 5.1 °F 5.0 °F 61% 30.23 in 10.0 mi North 9.2 mph - N/A   Overcast
2:54 PM 16.7 °F 6.2 °F 4.6 °F 59% 30.23 in 10.0 mi North 8.1 mph - N/A   Overcast
3:13 PM 16.7 °F 5.3 °F 4.3 °F 58% 30.24 in 10.0 mi NNE 9.2 mph - N/A   Overcast
3:34 PM 16.5 °F 6.0 °F 3.7 °F 57% 30.25 in 10.0 mi North 8.1 mph - N/A   Overcast
3:54 PM 16.5 °F 4.3 °F 3.9 °F 58% 30.26 in 10.0 mi North 10.4 mph - N/A   Overcast
4:14 PM 15.8 °F 2.7 °F 3.6 °F 59% 30.26 in 10.0 mi North 11.5 mph - N/A   Overcast
4:33 PM 15.3 °F 2.8 °F 3.4 °F 59% 30.27 in 10.0 mi North 10.4 mph - N/A   Overcast
4:54 PM 14.2 °F 4.1 °F 2.3 °F 59% 30.28 in 10.0 mi North 6.9 mph - N/A   Mostly Cloudy
5:14 PM 14.4 °F 5.5 °F 3.0 °F 61% 30.29 in 10.0 mi North 5.8 mph - N/A   Overcast
5:33 PM 14.0 °F 5.1 °F 4.1 °F 65% 30.30 in 10.0 mi North 5.8 mph - N/A   Overcast
5:54 PM 13.6 °F 4.6 °F 4.5 °F 67% 30.31 in 10.0 mi North 5.8 mph - N/A   Overcast
6:14 PM 13.3 °F 3.0 °F 3.2 °F 64% 30.31 in 10.0 mi North 6.9 mph - N/A   Overcast
6:33 PM 13.1 °F 1.8 °F 3.2 °F 65% 30.31 in 10.0 mi NNE 8.1 mph - N/A   Overcast
6:54 PM 12.9 °F 0.7 °F 3.4 °F 66% 30.31 in 10.0 mi North 9.2 mph - N/A   Overcast
7:14 PM 12.4 °F 0.9 °F 3.4 °F 67% 30.32 in 10.0 mi North 8.1 mph - N/A   Overcast
7:33 PM 12.2 °F 1.7 °F 3.4 °F 68% 30.33 in 10.0 mi North 6.9 mph - N/A   Overcast
7:54 PM 12.0 °F -2.0 °F 3.4 °F 68% 30.33 in 10.0 mi North 11.5 mph - N/A   Overcast
8:14 PM 11.7 °F -0.9 °F 3.0 °F 68% 30.33 in 10.0 mi North 9.2 mph - N/A   Overcast
8:33 PM 11.7 °F -0.9 °F 2.7 °F 67% 30.34 in 10.0 mi North 9.2 mph - N/A   Overcast
8:54 PM 11.7 °F -1.7 °F 2.3 °F 66% 30.34 in 10.0 mi North 10.4 mph - N/A   Overcast
9:14 PM 11.3 °F -1.3 °F 2.5 °F 68% 30.35 in 10.0 mi North 9.2 mph - N/A   Overcast
9:33 PM 11.3 °F -1.3 °F 3.2 °F 70% 30.35 in 10.0 mi NNW 9.2 mph - N/A   Overcast
9:54 PM 11.3 °F -0.4 °F 2.7 °F 68% 30.36 in 10.0 mi NNW 8.1 mph - N/A   Overcast
10:14 PM 11.3 °F 0.7 °F 3.0 °F 69% 30.36 in 10.0 mi NNW 6.9 mph - N/A   Overcast
10:33 PM 11.3 °F -1.3 °F 3.2 °F 70% 30.36 in 10.0 mi North 9.2 mph - N/A   Overcast
10:54 PM 11.7 °F -0.9 °F 4.1 °F 72% 30.36 in 10.0 mi North 9.2 mph - N/A   Overcast
11:13 PM 11.7 °F -0.9 °F 4.3 °F 72% 30.36 in 10.0 mi NNW 9.2 mph - N/A   Overcast
11:34 PM 11.7 °F -0.9 °F 4.8 °F 74% 30.36 in 10.0 mi North 9.2 mph - N/A   Overcast
11:54 PM 11.8 °F 0.3 °F 4.8 °F 73% 30.35 in 10.0 mi NNW 8.1 mph - N/A   Overcast